Tracking 35274 objects as of 11-Sep-2026
HD Live streaming from Space Station
objects crossing your sky now

COSMOS 1644 DEB


COSMOS 1644 DEB is no longer on orbit


NORAD ID: 15650
Int'l Code: 1985-027J
Launch date: April 3, 1985
Source: Commonwealth of Independent States (former USSR) (CIS)
Launch site: TYURATAM MISSILE AND SPACE COMPLEX (TTMTR)
Decay date: 1987-07-09

Note: This is SATELLITE DEBRIS
Your satellite tracking list
Your tracking list is empty




NASA's NSSDC Master Catalog

Two Line Element Set (TLE):
1 15650U 85027  J 87190.51483019  .07694892 +15714-4 +16261-3 0  9991
2 15650 070.3068 216.1685 0011822 253.4899 106.4804 16.45908188130328
Source of the keplerian elements: AFSPC